[ hide orbit diagram ]
For accurate long-term ephemerides, please instead use our Horizons system.This orbit viewer was implemented using two-body methods, and hence should not be used for determining accurate long-term trajectories (over several years or decades) or planetary encounter circumstances.
Orbital Elements at Epoch 2459000.5 (2020-May-31.0) TDB
Reference: JPL 17 (heliocentric ecliptic J2000)
Element | Value | Uncertainty (1-sigma) | Units |
e | .1752032076747216 | 5.4974e-08 | |
a | 2.182255371032663 | 8.3446e-09 | au |
q | 1.799917230062351 | 1.217e-07 | au |
i | .9887988492268462 | 4.3765e-06 | deg |
node | 47.93213898134402 | 0.00034122 | deg |
peri | 307.8986798655951 | 0.0003414 | deg |
M | 153.5827722277294 | 1.1928e-05 | deg |
tp | 2458498.161128974132 (2019-Jan-14.66112897) | 3.7888e-05 | TDB |
period | 1177.488796081657 3.22 | 6.7538e-06 1.849e-08 | d yr |
n | .305735393150216 | 1.7536e-09 | deg/d |
Q | 2.564593512002975 | 9.8066e-09 | au |
|
| | Orbit Determination Parameters
Additional Information
|
[ show covariance matrix ]
Physical Parameter Table
Parameter |
Symbol |
Value |
Units |
Sigma |
Reference |
Notes |
absolute magnitude |
H |
17.05 |
|
n/a |
E2021B10 |
|
|
80106 (1999 RV26) Discovered 1999-Sep-07 by LINEAR at Socorro |
Reference: 20040504/Numbers.arc | Last Updated: 2004-07-16 |
|
|